Regional Weather Roundup
Issued by NWS

Home | Current Version | Previous Version | Graphics & Text | Print | Product List | Glossary On
Versions: 1 2 3 4 5 6 7 8 9 10 11 12 13 14 15 16 17 18 19 20 21 22 23 24 25 26 27 28 29 30 31 32 33 34 35 36 37 38 39 40 41 42 43 44 45 46 47 48 49 50
000
ASUS43 KOAX 171810
RWRNE

WEATHER ROUNDUP FOR NEBRASKA
NATIONAL WEATHER SERVICE OMAHA NE
1200 PM CST SAT FEB 17 2018

NOTES: SATELLITE DATA IS BEING USED TO AUGMENT CLOUD COVER ABOVE
       12000 FEET.
       "FAIR" INDICATES FEW OR NO CLOUDS BELOW 12,000 FEET WITH NO
       SIGNIFICANT WEATHER AND/OR OBSTRUCTIONS TO VISIBILITY.


NEZ001>004-019>022-054>056-171900-
NEBRASKA PANHANDLE

CITY           SKY/WX    TMP DP  RH WIND       PRES   REMARKS
SCOTTSBLUFF    SUNNY     42  15  33 NW14G23   30.04F
6HR MIN TEMP:  25; 6HR MAX TEMP:  42;

ALLIANCE       SUNNY     41  16  36 NW20      30.04S
6HR MIN TEMP:  18; 6HR MAX TEMP:  41;

CHADRON        SUNNY     33  22  63 W14       30.05F WCI  23
6HR MIN TEMP:  13; 6HR MAX TEMP:  33;

GORDON         FAIR      32  19  59 SW9       30.05R WCI  24
6HR MIN TEMP:  16; 6HR MAX TEMP:  32;

KIMBALL        MOSUNNY   43  11  26 NW26G36   30.05F
SIDNEY         SUNNY     44  15  31 NW21G35   30.06F
6HR MIN TEMP:  20; 6HR MAX TEMP:  44;

$$

NEZ057>060-069>072-079>082-171900-
SOUTHWEST NEBRASKA

CITY           SKY/WX    TMP DP  RH WIND       PRES   REMARKS
NORTH PLATTE   SUNNY     44  22  41 NW21G28   30.07R
6HR MIN TEMP:  20; 6HR MAX TEMP:  45;

IMPERIAL       SUNNY     45  20  36 NW15G29   30.09R
6HR MIN TEMP:  26; 6HR MAX TEMP:  45;

LEXINGTON      SUNNY     42  26  53 NW12      30.07S
MCCOOK         SUNNY     45  24  43 NW23G31   30.10R
6HR MIN TEMP:  29; 6HR MAX TEMP:  45;

OGALLALA       SUNNY     45  19  34 NW21G28   30.07S
$$

NEZ005>010-023>029-035>040-094-171900-
NORTH CENTRAL NEBRASKA

CITY           SKY/WX    TMP DP  RH WIND       PRES   REMARKS
VALENTINE      MOSUNNY   36  23  59 NW16G24   30.05R WCI  26
6HR MIN TEMP:  21; 6HR MAX TEMP:  37;

AINSWORTH      SUNNY     38  26  62 NW16      30.04R WCI  28
BROKEN BOW     SUNNY     43  24  47 NW18G25   30.03R
6HR MIN TEMP:  27; 6HR MAX TEMP:  43;

O`NEILL        SUNNY     40  25  55 NW20G25   30.03R WCI  30
ORD            SUNNY     44  24  45 NW13      30.02R
6HR MIN TEMP:  27; 6HR MAX TEMP:  44; 6HR PCP: TRACE;

THEDFORD       SUNNY     40  22  48 N20G25    30.05R WCI  31
$$

NEZ041-046>049-061>064-073>077-083>087-171900-
SOUTH CENTRAL NEBRASKA

CITY           SKY/WX    TMP DP  RH WIND       PRES   REMARKS
GRAND ISLAND   SUNNY     44  25  47 W15       30.06R
6HR MIN TEMP:  27; 6HR MAX TEMP:  45;

AURORA         SUNNY     44  24  44 NW14      30.05R
HASTINGS       SUNNY     42  23  46 NW13      30.07R
6HR MIN TEMP:  23; 6HR MAX TEMP:  42;

HEBRON         SUNNY     49  19  30 NW15G21   30.07R
HOLDREGE       SUNNY     45  23  41 W9G16     30.08R
KEARNEY        SUNNY     43  21  41 NW12      30.08R
YORK           SUNNY     45  25  45 NW10      30.04R
$$

NEZ011>018-030>034-042>045-171900-
NORTHEAST NEBRASKA

CITY           SKY/WX    TMP DP  RH WIND       PRES   REMARKS
NORFOLK        SUNNY     40  23  50 NW14      29.99R WCI  32
6HR MIN TEMP:  25; 6HR MAX TEMP:  40; 6HR PCP: TRACE;

ALBION         SUNNY     42  25  50 NW16G22   30.01S
BLAIR          SUNNY     41  28  59 NW14      30.00R
COLUMBUS       SUNNY     39  27  62 W10       30.04R WCI  32
FREMONT        SUNNY     42  28  58 NW12      30.02R
TEKAMAH        SUNNY     38  28  67 NW12      30.01R WCI  30
6HR MIN TEMP:  26; 6HR MAX TEMP:  38; 6HR PCP: TRACE;

WAYNE          SUNNY     38  29  71 NW10      30.01R WCI  30
$$

NEZ050>053-065>068-078-088>093-171900-
SOUTHEAST NEBRASKA

CITY           SKY/WX    TMP DP  RH WIND       PRES   REMARKS
LINCOLN        SUNNY     47  27  45 NW14      30.06R
6HR MIN TEMP:  27; 6HR MAX TEMP:  47;

OMAHA EPPLEY   SUNNY     42  26  53 N16       30.01R
6HR MIN TEMP:  28; 6HR MAX TEMP:  42; 6HR PCP: TRACE;

BEATRICE       SUNNY     47  29  49 NW18G25   30.05R
FALLS CITY     SUNNY     44  23  43 NW16G24   30.02R
6HR MIN TEMP:  30; 6HR MAX TEMP:  45;

NEBRASKA CITY  SUNNY     44  28  54 NW13      30.02R
PLATTSMOUTH    SUNNY     41  28  58 NW14      30.01R
$$

NEZ044-045-051>053-067-171900-
OMAHA AREA

CITY           SKY/WX    TMP DP  RH WIND       PRES   REMARKS
OMAHA EPPLEY   SUNNY     42  26  53 N16       30.01R
6HR MIN TEMP:  28; 6HR MAX TEMP:  42; 6HR PCP: TRACE;

BLAIR          SUNNY     41  28  59 NW14      30.00R
FREMONT        SUNNY     42  28  58 NW12      30.02R
MILLARD        SUNNY     43  27  52 NW8       30.02R
OFFUTT AFB     SUNNY     44  26  49 NW14      30.01R
PLATTSMOUTH    SUNNY     41  28  58 NW14      30.01R
WAHOO          FAIR      41  28  59 NW14      30.02R
$$




USA.gov is the U.S. government's official web portal to all federal, state and local government web resources and services.